Theta_e
283 285 286 286 286 285 283 284 284 284 283 283 283 282 282 282 283 282 283 284 284 284 284 284 283 284 283 284 284 284 283 283 280 283 286 287 284 285 287 286 287 287 288
281 282 283 283 283 282 282 282 283 282 283 282 282 281 282 282 282 281 282 283 283 283 283 283 282 283 282 283 282 282 282 283 281 279 283 284 285 285 284 284 285 286 286
278 279 280 281 281 281 282 282 282 281 282 282 282 280 281 281 281 282 283 283 284 284 283 281 281 281 280 282 282 281 282 282 282 280 280 284 285 286 284 285 285 285 285
277 277 277 279 280 280 281 281 281 281 280 281 282 282 281 282 282 283 283 283 283 283 282 281 280 280 280 280 281 281 282 282 282 281 281 282 285 285 284 283 282 284 283
275 275 276 278 279 278 278 278 279 279 280 280 280 282 282 282 282 283 283 283 282 281 281 280 280 281 282 282 281 281 281 281 280 281 281 282 283 283 281 282 281 282 283
275 275 276 276 276 275 276 276 277 277 278 278 279 280 280 282 283 284 283 281 280 280 280 281 280 280 281 283 284 283 282 281 280 281 281 281 282 281 282 280 279 279 278
276 276 277 277 277 277 277 278 277 276 278 278 278 278 279 280 282 283 283 281 281 282 281 281 281 282 281 281 283 284 284 284 284 282 281 282 282 282 281 278 278 278 279
276 276 276 276 276 276 276 277 277 279 279 279 279 279 279 280 282 283 283 282 282 282 282 282 282 282 282 281 281 281 281 282 282 283 283 283 284 283 281 280 279 280 280
275 274 274 274 274 275 275 275 277 277 278 279 279 279 279 280 282 283 283 282 282 282 282 283 282 282 283 284 281 280 280 281 283 285 285 285 286 286 284 281 280 278 277
274 274 274 274 273 273 274 275 276 276 277 277 278 278 279 279 281 282 282 281 280 281 282 282 283 282 284 284 281 280 279 280 280 279 280 283 284 284 286 283 281 277 277
273 273 273 273 273 274 274 275 274 275 275 275 276 277 277 277 278 280 281 280 280 280 280 281 282 283 283 284 284 281 280 282 281 280 280 280 280 280 281 281 281 280 277
271 271 271 271 272 274 273 273 274 274 274 275 275 276 278 278 278 279 280 281 281 280 280 280 281 283 283 284 283 283 284 283 282 281 280 280 280 280 281 280 280 279 280
268 267 269 271 272 273 272 273 274 275 275 275 275 276 277 279 279 280 279 280 281 280 281 281 282 283 283 283 284 284 283 282 281 280 280 280 281 281 279 276 275 275 274
267 269 271 271 271 272 273 273 273 274 274 275 275 276 276 277 278 279 280 281 281 281 281 281 281 282 282 282 281 282 282 283 282 281 281 281 281 281 277 278 277 277 276
268 269 271 271 271 271 272 272 272 273 274 274 275 276 276 275 276 278 279 278 278 278 277 278 279 279 279 279 279 279 280 281 281 281 281 281 280 279 278 278 278 277 276
268 271 271 269 271 271 271 271 274 274 274 275 276 276 276 277 277 276 276 277 276 277 274 275 276 276 276 277 277 279 279 278 279 279 279 279 278 277 277 278 278 276 274
265 268 269 268 270 270 270 269 269 272 273 273 274 273 273 275 275 274 275 275 274 273 271 272 272 274 274 274 274 275 274 276 274 276 276 277 277 277 276 275 275 276 274
263 264 265 268 269 269 269 269 269 267 267 269 271 271 272 273 273 273 274 273 269 270 268 268 268 270 270 270 271 272 273 273 273 273 274 274 273 274 272 273 273 273 273
265 267 268 268 268 267 266 267 267 267 267 267 268 270 270 270 271 272 273 267 266 266 267 267 267 267 267 268 268 268 268 268 269 269 270 271 271 270 270 270 271 270 270
264 263 263 266 267 267 267 267 267 267 267 266 266 267 268 265 265 267 269 268 265 265 266 266 266 266 266 266 266 265 266 266 267 267 268 270 270 270 269 268 268 269 269
268 268 265 265 266 266 266 266 267 266 266 265 266 267 269 265 264 266 267 267 267 266 265 265 265 266 265 265 265 265 264 265 265 265 264 265 265 267 268 268 268 266 263
267 267 268 266 267 266 266 266 266 265 265 264 265 265 270 267 266 265 265 266 266 266 266 265 265 265 265 264 264 264 263 263 264 263 264 262 262 263 263 264 264 264 264
265 266 266 266 266 265 264 264 263 264 264 264 264 264 264 264 264 264 264 265 265 265 266 265 264 263 263 263 263 263 262 263 263 263 263 262 261 262 262 263 261 260 260
266 267 266 265 265 265 265 265 265 264 264 264 264 264 264 264 264 264 264 265 265 265 265 264 263 262 262 261 262 261 261 261 261 260 260 260 261 260 260 260 262 259 259
265 265 265 264 264 264 264 264 264 264 264 264 264 264 264 264 264 264 264 264 264 263 263 263 263 262 260 258 259 259 260 262 259 258 257 257 258 258 259 258 258 258 256
264 264 263 263 262 262 262 262 262 263 262 263 263 263 264 263 263 263 264 263 263 263 262 262 262 261 261 260 259 259 259 261 258 258 258 258 258 259 258 257 257 257 254
Wind_Speed
4 5 5 5 4 3 5 5 5 4 6 7 7 7 8 6 6 7 7 6 7 6 6 5 5 5 4 4 4 4 4 3 5 5 7 6 3 5 5 5 6 6 6
3 5 5 5 5 6 6 6 5 6 6 7 6 8 7 7 6 9 9 7 7 7 6 5 6 4 6 5 5 5 4 4 4 10 8 5 6 3 3 4 4 3 5
2 3 5 6 6 6 6 5 6 6 7 7 6 9 9 8 9 9 8 7 7 7 5 7 8 6 7 6 6 5 4 4 5 7 8 5 4 3 3 3 3 4 3
1 3 4 5 6 5 5 5 6 6 6 7 7 6 8 8 8 7 8 8 7 5 7 9 9 9 8 7 6 6 5 5 6 8 8 7 4 2 2 4 4 4 7
2 3 3 3 4 3 4 5 5 6 7 6 7 7 6 7 6 8 8 7 7 9 10 10 9 9 13 11 6 7 7 6 7 8 7 5 4 1 2 2 4 6 7
2 3 2 3 2 4 5 5 6 5 6 6 8 8 8 6 12 16 11 6 11 11 9 9 10 10 15 19 19 17 10 8 10 7 6 6 5 3 2 2 3 3 4
1 2 1 2 3 3 4 5 5 6 6 7 7 8 9 10 15 16 17 10 10 10 10 9 8 7 10 10 17 20 20 23 22 10 10 9 7 3 2 2 3 3 5
2 3 3 3 4 4 4 5 5 6 7 7 7 8 9 8 16 17 18 12 11 12 12 11 10 9 9 10 9 10 12 13 15 12 14 13 10 4 4 3 3 6 7
2 3 3 4 5 4 5 5 5 5 6 6 7 8 9 9 14 15 14 10 11 13 11 11 11 10 14 17 11 11 11 12 13 20 21 20 18 17 11 2 6 5 5
3 4 4 5 5 5 5 5 5 5 6 6 7 7 8 9 12 13 12 8 10 8 9 10 12 13 16 16 11 11 10 12 8 6 8 14 17 14 18 12 7 6 5
4 5 5 5 5 6 5 5 5 5 5 5 6 6 6 7 8 12 13 8 7 8 8 7 6 14 17 19 21 11 12 11 8 7 6 6 6 6 6 6 7 7 7
4 4 5 5 5 4 4 5 4 4 5 4 4 4 3 3 6 8 10 11 12 7 8 6 7 15 18 18 15 18 20 18 8 8 7 7 7 7 7 7 8 7 7
4 4 4 4 4 4 4 5 5 3 4 4 3 4 4 2 2 5 7 8 10 7 5 9 16 17 18 15 19 20 16 8 8 9 9 8 7 5 4 2 1 3 3
4 4 3 3 4 3 3 3 3 3 3 4 4 4 3 3 3 3 4 4 5 5 7 6 9 11 14 12 8 10 6 6 7 8 8 6 3 3 3 3 4 5 6
3 5 4 3 3 4 3 4 3 4 3 5 5 4 5 3 4 9 8 5 5 7 9 6 6 4 4 4 6 5 5 5 6 6 5 4 4 4 5 5 5 5 6
4 3 3 4 4 4 4 5 6 9 9 10 9 7 4 6 8 11 11 11 12 11 5 5 4 4 4 4 4 3 3 4 4 4 4 4 5 5 6 6 6 6 6
4 4 3 3 4 4 4 4 5 4 8 8 8 8 8 11 10 11 12 12 12 8 2 3 4 4 4 4 4 4 4 3 3 3 3 3 4 4 4 3 3 4 6
4 6 5 5 4 4 4 4 4 5 5 4 5 8 10 12 11 12 13 10 4 3 2 3 3 3 3 3 4 4 4 4 4 3 3 3 2 2 3 4 4 5 5
6 6 5 5 5 5 4 5 5 5 6 6 5 6 4 9 12 14 12 3 4 4 3 4 4 4 3 3 3 3 3 3 3 3 3 3 3 2 3 3 3 4 3
6 9 6 5 5 5 5 5 5 6 6 6 6 6 3 1 3 4 4 5 5 6 5 6 5 5 5 5 4 3 4 4 4 4 4 4 4 3 4 3 3 3 4
5 6 7 6 6 6 6 6 6 6 7 7 7 6 12 6 7 7 7 7 7 7 7 7 6 6 5 5 5 5 5 6 4 3 3 3 3 3 3 3 2 2 1
6 6 6 6 6 7 7 7 7 7 8 8 8 8 17 7 8 8 9 8 8 8 7 7 7 7 6 6 6 6 6 7 6 4 5 3 3 3 2 2 2 2 2
6 6 7 7 7 8 7 8 8 8 9 9 9 8 7 8 8 9 9 9 8 8 7 7 8 7 6 6 7 7 8 8 7 5 5 4 4 4 3 3 3 3 3
7 8 9 8 8 8 9 9 9 11 11 10 10 9 9 9 10 10 10 9 9 9 8 8 8 10 8 7 7 7 8 7 4 4 6 4 5 5 3 3 3 4 3
8 8 8 8 9 9 10 10 10 11 11 10 10 10 10 10 10 10 10 9 9 9 9 8 8 9 11 12 11 10 9 12 8 6 3 4 5 5 4 3 4 3 3
8 8 8 7 8 9 9 10 11 10 11 10 10 10 10 10 10 10 9 9 9 9 10 8 9 12 12 10 11 12 12 14 10 11 7 6 6 6 4 5 6 4 4
Wind_Direction
221 237 233 234 217 194 226 237 235 236 244 245 244 241 241 232 225 229 231 230 218 220 215 219 227 225 233 232 233 234 241 238 259 286 281 294 292 274 301 311 311 307 309
239 243 240 239 229 226 225 227 230 240 239 244 239 247 237 232 225 232 234 222 227 222 218 207 220 213 226 228 234 237 236 238 259 275 281 265 261 248 260 296 287 267 272
263 248 241 237 232 232 229 222 225 230 237 240 229 249 246 236 235 232 233 235 224 223 209 210 222 212 221 217 220 236 244 247 252 258 273 266 276 298 324 303 287 283 264
267 273 259 244 240 238 239 235 234 226 227 239 238 235 249 250 239 231 228 230 228 222 220 222 220 219 220 213 215 222 237 255 250 251 257 270 287 302 269 297 320 328 321
272 270 273 272 260 257 258 254 241 246 234 222 237 239 238 240 242 238 231 222 226 232 231 227 226 224 226 220 213 207 214 230 245 253 262 272 276 308 304 313 294 315 302
291 284 292 276 257 247 244 242 250 238 238 245 237 236 243 242 242 247 234 231 239 237 238 228 224 223 230 230 228 228 227 225 241 253 264 265 269 238 239 263 319 323 322
264 279 299 305 277 262 250 242 237 239 247 244 238 233 238 243 245 243 240 236 239 237 233 236 233 221 215 225 231 234 236 238 242 252 258 252 265 247 231 251 255 262 268
296 302 307 301 292 291 283 273 267 259 254 252 246 240 245 244 241 242 242 239 243 243 239 234 234 234 223 216 224 231 230 231 236 236 239 250 252 238 200 207 247 281 276
295 306 310 301 292 294 289 283 279 271 267 261 263 263 258 255 251 247 242 237 241 245 244 240 233 233 233 234 228 238 241 242 235 239 239 246 249 251 237 225 244 255 283
326 319 310 299 298 293 285 285 289 282 277 276 276 273 273 274 269 261 251 252 254 255 251 248 238 243 247 243 232 235 243 248 234 227 236 250 250 245 242 226 234 236 243
325 317 312 304 302 295 303 305 297 294 293 293 285 278 270 266 270 267 261 252 253 259 261 261 253 252 254 255 250 239 242 255 251 239 230 234 229 223 220 222 217 219 233
329 310 312 307 304 316 311 293 290 282 283 275 274 282 255 236 255 272 274 263 260 258 260 260 261 267 270 268 263 259 259 256 248 237 231 236 233 221 215 209 213 220 232
307 286 279 305 300 301 295 303 300 287 293 302 303 307 309 311 274 290 294 290 280 272 266 268 273 276 276 274 266 260 261 248 243 240 240 237 227 222 192 113 145 231 237
292 294 295 288 311 282 304 296 299 301 307 302 305 308 314 309 327 349 325 319 299 283 274 273 275 272 278 275 268 262 252 243 230 237 241 238 202 159 174 200 219 209 215
283 284 291 288 295 310 301 297 293 286 278 295 303 314 299 311 332 327 327 327 326 315 311 294 286 244 270 265 258 250 254 248 239 244 243 236 226 212 207 208 220 234 245
282 273 318 314 317 311 313 311 273 257 278 283 288 289 313 293 316 320 324 326 323 319 313 293 302 310 303 313 319 298 249 241 253 260 246 237 230 229 231 219 210 210 229
270 293 289 272 282 294 300 301 305 305 280 268 270 285 291 289 297 307 307 312 317 318 297 304 301 303 302 305 303 309 312 338 12 323 283 264 252 234 225 226 233 234 228
256 260 266 263 263 267 266 274 285 289 297 294 281 278 287 285 287 294 297 310 294 266 250 275 280 286 286 288 291 294 297 299 290 290 288 291 275 258 243 242 233 238 248
236 245 237 249 251 256 270 262 256 261 266 273 284 280 266 283 292 288 282 229 261 263 255 254 248 252 249 253 256 257 256 264 275 300 285 268 261 256 255 251 240 248 257
242 245 255 262 261 256 253 253 253 250 251 251 254 254 259 271 257 264 242 227 239 248 246 246 244 238 238 236 241 242 249 244 238 231 233 241 244 238 246 229 222 247 238
252 251 223 245 243 243 245 247 252 255 256 255 255 248 248 232 254 252 251 242 240 241 241 238 243 240 232 230 229 234 236 242 232 233 227 234 221 233 225 246 250 207 268
251 254 249 243 248 249 248 246 248 249 251 255 262 258 265 255 254 257 254 249 244 240 240 240 242 238 232 225 224 228 232 238 230 215 224 217 216 208 212 213 203 222 177
256 262 261 256 251 252 253 249 250 250 253 253 255 257 249 245 243 245 250 252 249 246 241 234 236 240 233 224 225 227 233 235 227 213 216 205 199 209 198 194 181 206 181
266 258 255 256 256 254 253 252 250 248 250 253 253 253 251 249 249 248 249 252 252 250 241 235 232 235 241 230 226 222 228 236 229 221 206 205 205 192 194 175 179 177 178
259 260 261 265 266 266 269 261 257 255 256 256 256 252 251 251 252 251 250 249 248 247 246 242 239 238 233 233 235 233 233 229 215 211 191 204 219 204 180 168 166 158 150
268 266 266 265 264 264 266 269 267 265 262 259 257 255 255 255 254 255 255 254 252 249 246 246 244 240 242 239 235 231 230 231 223 211 204 204 204 205 187 176 172 153 147